Temperature
14 14 14 14 14 14 13 14 14 14 14 13 13 13 12 12 11 11 11 10 10 10 10 9 9 9 9 9 8 8 8 7 7 7 7 7 6 6 6 5 5 4 4
14 14 14 14 14 13 13 13 13 13 13 13 13 13 12 12 11 11 11 10 10 10 10 9 9 9 9 9 8 8 8 7 7 7 7 6 6 5 5 5 4 4 3
14 14 14 14 14 14 13 13 13 13 13 13 12 12 12 12 11 11 11 11 10 10 10 9 9 9 9 9 8 8 8 7 7 6 6 6 5 5 5 4 4 3 3
13 13 13 14 14 14 13 13 13 13 12 12 12 12 12 12 11 11 11 10 10 10 10 9 9 9 9 8 8 8 7 7 7 6 6 5 5 4 4 3 3 3 2
13 13 13 14 13 13 13 12 12 12 12 12 12 12 11 11 11 11 11 10 10 10 9 9 9 9 9 8 8 8 7 7 6 6 5 5 4 4 3 3 2 2 1
12 13 13 13 13 12 12 12 12 12 12 12 12 11 11 11 11 11 10 10 10 9 9 9 9 8 8 8 7 7 7 6 6 5 5 4 3 3 2 2 1 1 0
12 13 13 12 12 12 12 12 11 11 11 11 11 11 11 11 11 10 10 10 9 9 9 9 8 8 8 7 7 7 6 6 5 5 4 3 3 2 2 1 1 -0 -1
12 12 12 12 12 12 11 11 11 11 11 11 11 11 11 10 10 10 9 9 9 9 9 8 8 8 7 7 7 6 6 5 5 4 4 3 2 1 1 0 -0 -1 -1
11 11 12 12 11 11 11 11 11 11 11 11 11 10 10 10 10 10 9 9 9 8 8 8 8 7 7 7 6 6 5 5 4 3 3 2 2 1 0 -0 -1 -1 -1
11 11 11 11 11 11 11 11 10 10 10 10 10 10 10 10 10 9 9 9 8 8 8 8 7 7 6 6 6 5 5 4 4 3 2 2 1 0 -0 -1 -2 -2 -3
10 10 10 11 11 11 11 10 10 10 10 10 10 10 9 9 9 9 9 8 8 8 8 7 7 6 6 5 5 5 4 4 3 2 2 1 0 -0 -1 -2 -2 -3 -4
9 9 10 10 10 10 10 10 10 10 10 9 9 9 9 9 9 8 8 8 8 8 8 7 6 6 5 5 4 4 3 3 2 2 1 0 -0 -1 -2 -2 -3 -4 -4
9 9 9 9 9 9 9 9 9 9 9 9 9 9 9 8 8 8 8 8 7 7 7 6 6 5 5 4 4 3 3 2 2 1 0 -0 -1 -2 -3 -3 -4 -4 -5
8 8 8 9 9 9 9 9 9 9 9 9 9 9 8 8 8 7 7 7 7 7 6 6 5 5 4 3 3 3 2 2 1 0 -0 -1 -2 -2 -3 -3 -4 -4 -5
7 8 8 8 8 8 8 8 9 9 9 9 9 9 8 8 8 8 8 7 7 6 6 5 5 4 3 3 3 2 2 1 0 -0 -1 -2 -2 -3 -4 -4 -4 -5 -5
7 7 7 8 8 8 8 8 8 8 8 9 9 8 8 8 8 7 7 7 6 6 5 5 4 4 3 3 2 2 1 0 -0 -1 -2 -2 -3 -4 -4 -5 -5 -6 -6
6 7 7 7 7 7 7 7 7 7 7 8 8 8 8 7 7 7 6 6 6 5 5 4 4 3 3 2 1 1 0 -0 -1 -2 -3 -3 -4 -4 -5 -5 -6 -6 -7
6 6 6 7 7 7 7 7 7 7 6 6 6 7 7 7 6 6 6 5 5 4 4 4 3 3 2 2 1 0 -0 -1 -2 -2 -3 -4 -4 -5 -5 -6 -6 -7 -7
5 6 6 6 7 7 7 7 7 7 6 6 6 5 6 5 5 5 5 5 5 4 4 3 3 2 2 1 0 -0 -1 -1 -2 -3 -3 -4 -4 -5 -5 -6 -7 -7 -8
5 6 6 6 6 6 6 7 7 6 6 6 5 5 5 5 5 4 4 4 4 4 3 3 2 2 1 1 -0 -1 -1 -2 -3 -3 -4 -4 -5 -5 -6 -7 -7 -8 -8
5 5 5 5 6 6 6 6 6 6 6 5 5 5 5 5 5 4 4 4 3 3 3 2 2 1 1 0 -1 -1 -2 -2 -3 -4 -4 -5 -5 -6 -6 -7 -7 -8 -8
4 5 5 5 5 6 6 6 6 6 6 5 5 4 4 4 4 4 4 3 3 2 2 2 1 1 0 -0 -1 -2 -2 -3 -3 -4 -4 -5 -6 -6 -7 -7 -8 -8 -9
4 4 5 5 5 5 5 5 5 5 5 5 5 4 4 4 4 4 3 3 2 2 1 1 1 0 -1 -1 -2 -2 -3 -3 -4 -4 -5 -5 -6 -7 -7 -8 -8 -8 -9
4 4 4 4 4 5 5 5 5 5 5 5 5 4 4 4 3 3 3 2 2 1 1 0 -0 -1 -1 -2 -2 -3 -3 -4 -4 -5 -5 -6 -6 -7 -7 -8 -8 -9 -9
4 4 4 4 4 4 4 4 4 4 4 4 4 4 4 3 3 3 2 2 1 1 0 -0 -1 -1 -2 -2 -3 -3 -4 -4 -4 -5 -5 -6 -7 -7 -8 -8 -9 -9 -9
3 3 3 4 4 4 4 4 4 4 4 4 4 3 3 3 3 2 2 1 1 0 -0 -1 -1 -2 -2 -3 -3 -3 -4 -4 -5 -5 -6 -6 -7 -7 -8 -8 -9 -9 -10
Wind_Speed
18 17 17 17 17 16 16 17 16 15 15 17 17 16 16 15 15 14 12 13 13 11 10 10 10 8 6 5 5 4 4 4 5 3 1 0 0 1 3 3 4 5 7
17 16 17 16 16 17 17 16 15 15 16 16 16 16 16 15 15 15 14 14 14 13 12 11 10 7 7 6 5 5 5 5 5 5 2 1 1 1 2 2 4 5 6
15 16 16 16 16 17 17 16 16 15 15 15 16 17 17 16 16 15 14 14 13 13 12 12 11 9 9 6 6 6 5 4 3 3 3 1 1 0 1 2 3 4 5
14 15 16 17 17 16 15 15 16 16 15 16 16 16 16 15 15 14 13 13 12 11 10 10 10 10 10 9 7 6 5 4 3 2 2 1 1 0 1 2 3 3 4
12 15 16 16 15 13 13 14 14 15 15 15 14 14 14 13 13 14 13 12 12 10 9 9 9 10 10 9 7 6 6 4 3 2 2 1 1 0 1 1 2 3 3
12 14 14 13 14 14 14 13 13 14 14 14 14 14 14 12 16 18 15 12 11 11 10 8 7 8 9 10 10 9 8 6 5 3 2 2 2 2 1 1 1 2 3
11 13 13 14 14 14 14 14 14 14 13 14 14 14 13 14 18 19 17 12 10 10 10 9 7 7 8 7 8 8 6 6 6 5 4 3 2 2 1 1 1 2 3
10 11 12 13 14 14 14 14 13 12 13 12 12 13 12 12 18 19 18 12 9 9 9 9 9 8 8 9 8 7 5 4 4 3 3 2 1 1 2 1 1 1 2
9 11 12 13 14 15 15 14 11 11 11 11 11 12 12 12 17 19 17 10 9 8 7 8 9 9 13 14 10 9 7 5 7 9 8 7 6 5 5 3 2 2 2
9 10 11 12 13 15 15 13 10 11 11 11 10 10 12 12 17 19 18 10 10 8 7 7 11 12 15 14 10 9 8 5 5 6 7 7 7 7 7 4 2 1 1
6 8 10 11 12 13 12 11 12 11 11 11 10 9 9 12 16 19 18 11 11 10 8 7 7 14 15 13 11 7 9 8 6 6 5 4 4 4 4 4 3 1 1
6 8 9 11 11 11 13 12 12 13 13 12 11 9 7 8 12 16 18 16 14 11 9 8 9 16 15 14 10 11 13 10 6 5 4 3 2 2 2 3 4 3 0
7 8 9 11 11 12 13 13 12 12 12 11 11 10 8 7 10 16 18 19 17 11 10 14 16 17 14 10 12 14 11 6 5 5 3 2 1 1 2 2 4 5 4
8 9 9 11 11 11 10 11 11 11 12 12 11 11 10 9 9 10 11 13 16 13 12 15 18 17 12 12 11 8 6 5 5 4 3 2 2 2 2 2 2 3 3
8 9 9 10 12 11 9 8 9 9 12 14 12 13 13 11 12 17 15 12 11 13 13 10 8 8 7 6 6 6 5 5 5 4 4 3 2 2 2 2 2 2 2
8 8 8 9 10 10 10 8 9 9 12 13 14 14 11 14 20 20 20 21 22 23 14 10 9 8 8 7 6 5 4 4 4 4 3 3 2 2 2 2 2 2 2
8 8 8 9 10 11 11 11 10 10 13 13 16 17 18 22 23 22 23 23 22 20 10 9 9 8 7 7 6 5 4 4 4 4 3 3 2 2 1 2 2 2 3
8 9 9 9 10 10 10 10 11 12 10 8 11 17 21 23 23 23 25 20 13 9 8 9 9 8 7 7 6 5 5 5 4 4 3 3 2 2 1 1 2 2 3
7 7 8 8 9 9 10 10 10 11 12 11 11 13 18 21 22 21 19 11 11 9 8 8 8 8 7 7 6 6 5 5 4 4 3 2 2 2 1 1 1 4 3
6 10 10 10 10 10 10 11 11 12 12 12 12 12 12 13 12 11 8 8 9 9 9 8 7 7 7 7 7 6 5 5 4 3 3 2 2 1 1 0 1 2 2
7 9 12 11 9 10 11 11 12 12 12 11 10 12 16 12 12 11 9 8 9 9 9 9 8 8 7 7 6 6 6 5 4 3 3 2 2 1 1 0 1 2 2
7 8 8 10 10 10 10 11 12 12 13 13 11 12 17 11 10 10 9 8 7 7 8 8 8 7 7 7 7 7 6 5 4 4 3 2 2 1 1 0 1 2 2
8 8 9 9 10 13 12 11 11 12 12 13 13 12 11 10 10 10 9 9 8 8 8 9 8 7 7 7 8 7 6 5 5 5 4 3 2 1 1 0 1 2 3
8 10 10 10 10 10 11 12 11 12 12 12 12 12 11 11 10 11 10 9 9 9 9 9 9 10 10 8 8 7 7 7 7 6 6 4 3 1 1 0 1 2 3
8 9 10 10 10 11 11 12 12 12 12 12 11 11 11 11 11 10 10 9 10 9 10 10 9 10 11 10 9 8 8 9 8 7 6 4 3 2 1 1 1 2 3
9 9 9 10 10 11 12 12 12 13 12 12 11 11 12 11 11 11 10 10 9 9 9 9 10 11 11 10 10 10 9 9 8 7 6 5 3 2 1 1 1 2 2
Wind_Direction
198 199 199 198 196 192 192 193 191 186 182 184 186 186 187 187 187 189 191 187 193 195 193 196 203 196 193 193 186 185 192 189 229 254 220 231 165 327 342 324 304 307 307
198 197 200 196 193 194 194 193 189 186 185 186 184 185 188 188 188 190 191 190 193 195 195 194 201 195 194 191 188 194 199 197 208 241 249 242 245 299 322 323 326 323 312
195 194 197 195 193 195 195 190 187 187 185 183 183 187 188 188 189 191 192 192 194 195 193 195 197 189 197 193 190 196 198 194 198 216 243 230 235 336 329 319 326 327 323
193 192 196 196 196 195 191 188 187 186 185 184 186 188 187 186 188 189 189 189 190 190 190 192 192 192 196 191 192 193 183 179 181 199 229 234 244 329 335 309 318 324 320
194 193 196 196 192 186 184 185 185 185 185 183 182 183 183 184 186 184 185 184 183 182 183 186 188 187 187 183 181 179 172 175 174 186 208 218 242 304 294 291 298 317 309
196 195 192 188 183 181 181 179 180 182 181 179 181 181 182 187 180 178 178 180 179 178 177 175 171 171 169 164 161 160 162 168 180 178 189 208 241 243 252 280 292 334 308
196 191 186 183 181 180 176 176 179 179 176 179 180 179 182 181 173 173 172 173 172 173 172 168 161 161 155 148 142 135 135 138 151 163 171 199 211 214 197 248 266 270 271
192 187 182 179 179 175 174 177 178 175 174 174 174 175 175 174 167 165 160 161 159 163 166 164 159 155 152 141 131 121 108 101 121 125 144 151 142 138 139 164 245 294 299
189 184 179 176 174 172 174 175 171 169 169 167 165 167 168 166 161 158 152 155 151 151 150 151 152 149 146 139 134 128 116 97 92 100 99 93 85 82 91 80 48 22 332
189 183 176 172 172 172 172 168 163 162 162 158 156 160 162 164 160 156 152 155 152 147 140 143 145 145 147 144 143 141 139 135 115 98 83 72 66 65 66 71 94 57 346
178 168 167 167 168 166 161 158 155 154 152 150 149 148 154 160 158 158 156 159 156 150 146 144 145 144 144 143 138 140 143 135 120 109 95 78 63 55 49 47 57 109 144
159 158 161 160 158 155 150 150 152 151 150 149 146 141 139 150 154 158 156 152 149 146 146 143 140 138 136 134 129 128 126 120 113 108 101 89 71 50 33 31 35 33 327
153 154 155 153 151 152 152 152 153 154 154 154 151 148 145 141 146 146 147 143 138 135 136 137 133 131 127 124 123 124 121 116 117 114 113 103 87 75 48 29 24 18 4
154 152 150 149 148 149 151 155 157 160 157 155 154 151 147 143 144 144 143 136 130 126 125 125 122 119 112 113 114 109 104 117 120 122 119 104 81 64 48 27 13 2 2
151 149 147 148 148 147 145 149 156 164 165 161 161 157 157 158 159 151 146 144 143 137 128 118 116 120 117 111 104 99 98 102 100 102 110 105 88 63 38 22 26 19 9
150 150 149 146 144 142 134 115 96 127 135 142 150 150 150 146 146 145 143 142 140 138 130 134 135 136 136 134 130 118 106 108 108 111 111 107 103 86 52 22 23 22 353
154 153 149 147 147 145 142 139 128 103 104 121 136 140 142 144 144 142 140 139 139 136 129 137 141 142 139 137 136 132 127 123 117 116 115 112 107 92 66 31 14 2 346
147 149 150 149 147 146 144 143 142 140 134 121 124 133 138 141 142 141 139 133 134 129 134 142 144 143 142 140 138 131 127 125 120 119 116 113 108 101 75 31 8 348 334
149 150 145 142 139 139 138 137 136 135 135 134 128 130 134 137 137 140 139 138 144 143 138 137 140 142 140 138 136 134 134 135 132 127 124 121 117 108 86 20 355 348 353
147 144 142 141 140 140 140 140 140 139 138 140 142 141 140 137 138 140 135 133 136 139 138 137 137 137 136 135 135 135 133 131 131 128 130 126 124 125 127 20 353 340 328
144 142 140 139 143 145 145 145 143 141 140 139 140 146 147 143 142 141 139 137 138 140 139 138 137 137 134 134 135 136 136 138 141 140 137 136 134 126 111 66 331 323 322
145 145 145 144 143 143 142 140 139 140 140 137 137 139 138 132 135 136 134 131 128 130 134 135 135 136 141 144 144 143 143 145 148 145 142 144 144 136 117 45 349 333 331
141 141 139 137 136 138 137 137 138 140 140 142 142 141 140 136 134 133 131 129 127 125 125 128 129 128 129 135 143 148 153 161 162 156 151 149 146 143 134 12 322 327 325
142 142 141 139 138 141 140 139 139 140 141 142 142 140 138 135 132 129 128 127 126 123 124 127 130 135 134 133 134 140 148 152 153 156 154 152 153 154 153 205 302 305 308
139 141 142 144 144 143 141 141 141 141 141 140 139 136 133 132 131 130 129 128 126 125 125 126 130 134 136 135 137 140 143 143 144 146 148 146 147 157 167 221 285 304 309
140 141 142 144 146 145 145 144 143 142 141 140 139 137 136 136 136 135 134 132 130 128 126 127 131 134 135 136 139 141 142 142 142 144 144 144 145 164 178 217 276 297 306
Height
1384 1389 1395 1402 1408 1415 1421 1427 1433 1439 1445 1451 1456 1462 1467 1472 1476 1481 1485 1489 1493 1496 1500 1502 1505 1508 1509 1511 1512 1513 1514 1514 1513 1512 1512 1511 1510 1508 1507 1505 1503 1500 1498
1378 1383 1389 1395 1402 1408 1415 1421 1427 1433 1439 1445 1451 1456 1462 1466 1471 1475 1479 1483 1487 1490 1494 1497 1500 1502 1504 1506 1507 1508 1509 1509 1509 1507 1507 1506 1505 1504 1502 1500 1498 1496 1493
1371 1377 1383 1389 1395 1401 1408 1415 1421 1427 1433 1439 1445 1450 1456 1461 1465 1470 1474 1478 1482 1485 1488 1491 1494 1497 1499 1501 1502 1503 1504 1504 1504 1503 1501 1501 1500 1499 1497 1496 1494 1491 1489
1365 1371 1376 1382 1388 1395 1402 1408 1415 1421 1427 1433 1439 1444 1450 1455 1460 1464 1469 1472 1476 1480 1483 1486 1489 1492 1494 1496 1497 1498 1499 1499 1499 1498 1497 1496 1495 1494 1493 1491 1488 1486 1484
1359 1364 1370 1376 1383 1389 1396 1403 1409 1416 1421 1427 1433 1439 1444 1449 1454 1458 1463 1467 1471 1475 1478 1481 1484 1487 1489 1491 1492 1493 1494 1494 1494 1493 1493 1492 1491 1489 1488 1486 1484 1482 1479
1353 1358 1364 1371 1377 1383 1390 1397 1404 1410 1416 1422 1428 1433 1438 1443 1448 1453 1458 1462 1466 1469 1473 1476 1479 1482 1484 1486 1487 1488 1489 1489 1489 1489 1488 1488 1487 1486 1484 1482 1480 1477 1474
1348 1353 1359 1365 1371 1378 1385 1391 1398 1404 1410 1416 1422 1428 1433 1438 1443 1448 1453 1457 1461 1465 1468 1471 1474 1477 1479 1481 1483 1484 1485 1485 1486 1486 1485 1484 1483 1482 1481 1479 1477 1474 1472
1343 1348 1353 1359 1366 1373 1379 1386 1392 1399 1405 1411 1416 1422 1428 1433 1439 1444 1448 1453 1457 1460 1464 1467 1470 1472 1475 1477 1479 1480 1481 1481 1482 1481 1481 1480 1480 1479 1478 1476 1474 1472 1469
1338 1343 1348 1354 1360 1367 1374 1380 1387 1394 1400 1406 1412 1418 1423 1429 1434 1439 1444 1448 1453 1456 1460 1463 1466 1468 1471 1473 1475 1476 1477 1478 1478 1478 1478 1477 1476 1475 1474 1473 1471 1468 1465
1334 1339 1344 1350 1356 1362 1369 1376 1382 1389 1396 1402 1408 1414 1419 1424 1430 1435 1440 1444 1448 1452 1456 1459 1462 1465 1467 1469 1471 1472 1474 1474 1475 1475 1475 1474 1473 1472 1471 1470 1467 1465 1462
1330 1335 1341 1346 1353 1359 1365 1372 1379 1385 1392 1398 1404 1410 1415 1421 1426 1431 1436 1440 1444 1448 1452 1455 1458 1461 1464 1466 1468 1470 1471 1471 1472 1472 1472 1471 1471 1470 1468 1467 1465 1463 1461
1327 1332 1337 1343 1349 1356 1362 1368 1375 1381 1388 1394 1400 1406 1412 1417 1422 1427 1432 1437 1441 1445 1448 1452 1455 1458 1461 1463 1465 1467 1468 1469 1469 1469 1469 1469 1468 1467 1466 1464 1463 1461 1459
1325 1330 1335 1341 1347 1353 1359 1365 1371 1378 1383 1390 1396 1402 1408 1413 1419 1424 1429 1433 1438 1442 1445 1449 1452 1456 1459 1461 1463 1464 1465 1466 1466 1466 1466 1466 1466 1465 1463 1462 1461 1459 1457
1323 1328 1333 1339 1344 1351 1357 1362 1368 1374 1379 1385 1391 1397 1403 1409 1414 1420 1425 1430 1434 1439 1443 1446 1450 1453 1456 1458 1460 1462 1463 1464 1464 1464 1464 1464 1463 1463 1461 1460 1458 1457 1455
1322 1326 1331 1336 1342 1348 1354 1360 1366 1372 1376 1382 1387 1393 1399 1404 1411 1416 1421 1426 1431 1435 1440 1443 1447 1450 1453 1455 1457 1459 1460 1461 1462 1462 1462 1462 1461 1460 1459 1458 1456 1454 1452
1320 1324 1328 1334 1340 1346 1351 1358 1364 1370 1376 1382 1387 1392 1398 1403 1409 1414 1420 1425 1429 1433 1437 1441 1444 1448 1450 1453 1455 1457 1458 1459 1459 1460 1460 1460 1459 1458 1457 1456 1455 1453 1451
1318 1322 1326 1332 1337 1342 1348 1354 1360 1368 1374 1380 1386 1391 1396 1401 1407 1412 1418 1423 1427 1431 1435 1438 1442 1445 1448 1451 1453 1455 1456 1457 1458 1458 1458 1458 1458 1457 1456 1454 1453 1451 1449
1317 1321 1325 1330 1335 1340 1346 1352 1358 1363 1370 1376 1383 1389 1394 1400 1405 1411 1416 1421 1424 1429 1433 1437 1440 1443 1446 1449 1451 1453 1454 1455 1456 1456 1457 1456 1456 1455 1454 1453 1451 1450 1448
1316 1319 1324 1328 1333 1339 1345 1351 1357 1362 1368 1374 1380 1387 1392 1398 1403 1409 1414 1419 1422 1427 1431 1435 1439 1442 1445 1447 1449 1451 1452 1453 1454 1455 1455 1455 1455 1454 1453 1452 1450 1448 1447
1314 1318 1322 1327 1332 1337 1343 1349 1355 1360 1366 1372 1378 1384 1390 1395 1400 1406 1411 1416 1421 1425 1430 1433 1437 1440 1443 1445 1447 1449 1450 1452 1453 1453 1454 1454 1453 1453 1452 1450 1449 1447 1445
1313 1317 1321 1326 1331 1336 1342 1347 1353 1359 1365 1371 1377 1383 1388 1394 1399 1404 1410 1415 1420 1424 1428 1432 1436 1439 1441 1444 1446 1447 1449 1450 1451 1452 1452 1452 1452 1451 1450 1449 1448 1446 1444
1312 1316 1320 1325 1330 1335 1341 1346 1352 1358 1364 1370 1376 1382 1388 1394 1399 1404 1409 1414 1419 1424 1428 1432 1435 1438 1440 1443 1444 1446 1447 1449 1450 1450 1451 1451 1451 1450 1449 1448 1447 1445 1443
1312 1315 1319 1324 1329 1335 1340 1346 1352 1357 1364 1370 1375 1381 1386 1392 1398 1403 1409 1414 1418 1423 1427 1430 1434 1436 1439 1442 1444 1445 1447 1448 1449 1449 1449 1449 1449 1449 1448 1447 1445 1444 1442
1312 1315 1319 1324 1329 1334 1339 1345 1351 1357 1363 1368 1374 1380 1386 1392 1397 1403 1408 1413 1418 1422 1426 1429 1433 1436 1438 1440 1442 1444 1445 1446 1447 1448 1448 1448 1448 1447 1446 1445 1444 1443 1441
1312 1316 1320 1324 1329 1334 1339 1344 1350 1356 1362 1368 1374 1379 1385 1391 1397 1402 1408 1412 1417 1421 1425 1429 1432 1435 1437 1439 1441 1443 1444 1445 1446 1446 1446 1446 1446 1446 1445 1444 1443 1442 1440
1312 1316 1320 1324 1329 1333 1338 1344 1350 1356 1362 1368 1374 1380 1385 1391 1397 1402 1407 1412 1416 1420 1424 1428 1431 1434 1437 1439 1440 1442 1443 1444 1445 1445 1445 1445 1445 1444 1444 1443 1442 1441 1439